Location: Presov
(49.0000°N, 21.2500°E)
Time: 05:27:29
(UTC+02:00)

Transit 2A Rocket - Pass Details

Date: 17 April 2021
Orbit: 594 x 909 km, 66.7° (Epoch: 07 May)

Event Time Altitude Azimuth Distance (km) Brightness Sun altitude
Rises 16:36:59 0° 208° (SSW) 2,957 8.6 27.2°
Reaches altitude 10° 16:39:19 10° 206° (SSW) 2,013 7.9 26.8°
Maximum altitude 16:43:48 72° 123° (ESE) 645 4.9 26.1°
Drops below altitude 10° 16:48:07 10° 39° (NE) 1,941 6.7 25.4°
Sets 16:50:20 0° 38° (NE) 2,843 7.5 25.0°
